User: anonymous   Login
Location: Bletchingley
(51.2333°N, 0.1000°W)
Time: 17:18:19
(UTC+00:00)
Language:

Cosmos 2266 Rocket - Orbit

View from above orbital plane
View from above orbital plane
View from above satellite
View from above satellite

Ground track
Ground track

The orbit data is extracted from the following two-line orbital elements,

1 22889U 93070B   20337.86304037  .00000093  00000-0  77796-4 0  9996
2 22889  82.9451  96.8565 0048628 285.0454  74.5325 13.77939535361542
Epoch (UTC): 02 December 2020 20:42:46
Eccentricity: 0.0048628
inclination: 82.9451°
perigee height: 935 km
apogee height: 1007 km
right ascension of ascending node: 96.8565°
argument of perigee: 285.0454°
revolutions per day: 13.77939535
mean anomaly at epoch: 74.5325°
orbit number at epoch: 36154

The dashed part of the orbit path shows where the satellite is in the earth's shadow,  

DLR